When you browse on this site, cookies collect data to enhance your experience and personalize the content and advertising you see.
Visit our Privacy Policy to learn more. By continuing to use the site, you agree to this use of cookies and data.
  • In Hungary
  • List of Countries
  • For 7 days
  • Water Temperature
  • Weather Map
  • News
  • Weather Widgets
  • user-avatar
    Login

    Hourly Weather Melovoe

    Today, 18 October, Friday

    Time Temperature Precipitation Wind Pressure Humidity
    00:00 +7°C° 0 mm 4 mps 758 mmHg 53%
    01:00 +8°C° 0 mm 3 mps 757 mmHg 54%
    02:00 +7°C° 0 mm 3 mps 757 mmHg 55%
    03:00 +7°C° 0 mm 2 mps 757 mmHg 60%
    04:00 +7°C° 0 mm 2 mps 757 mmHg 62%
    05:00 +7°C° 0 mm 3 mps 756 mmHg 65%
    06:00 +7°C° 0 mm 3 mps 756 mmHg 67%
    07:00 +8°C° 0 mm 3 mps 756 mmHg 65%
    08:00 +10°C° 0 mm 3 mps 755 mmHg 64%
    09:00 +11°C° 0 mm 4 mps 755 mmHg 61%
    10:00 +12°C° 0 mm 4 mps 755 mmHg 59%
    11:00 +14°C° 0 mm 4 mps 755 mmHg 57%
    12:00 +17°C° 0 mm 4 mps 755 mmHg 55%
    13:00 +17°C° 0 mm 4 mps 754 mmHg 55%
    14:00 +17°C° 0 mm 4 mps 754 mmHg 54%
    15:00 +18°C° 0 mm 4 mps 753 mmHg 54%
    16:00 +17°C° 0 mm 4 mps 753 mmHg 59%
    17:00 +14°C° 0 mm 3 mps 753 mmHg 64%
    18:00 +13°C° 0 mm 3 mps 753 mmHg 69%
    19:00 +13°C° 0 mm 3 mps 753 mmHg 70%
    20:00 +12°C° 0 mm 3 mps 753 mmHg 71%
    21:00 +12°C° 0 mm 3 mps 754 mmHg 73%
    22:00 +13°C° 0 mm 2 mps 753 mmHg 74%
    23:00 +13°C° 0 mm 2 mps 753 mmHg 75%

    Tomorrow, 19 October, Saturday

    Time Temperature Precipitation Wind Pressure Humidity
    00:00 +12°C° 0 mm 2 mps 753 mmHg 77%
    01:00 +12°C° 0 mm 2 mps 753 mmHg 79%
    02:00 +12°C° 0 mm 2 mps 754 mmHg 82%
    03:00 +10°C° 0 mm 2 mps 754 mmHg 85%
    04:00 +10°C° 0 mm 2 mps 754 mmHg 86%
    05:00 +10°C° 0 mm 2 mps 754 mmHg 87%
    06:00 +10°C° 0 mm 2 mps 754 mmHg 88%
    07:00 +12°C° 0 mm 2 mps 754 mmHg 85%
    08:00 +13°C° 0 mm 2 mps 755 mmHg 81%
    09:00 +14°C° 0 mm 2 mps 755 mmHg 77%
    10:00 +15°C° 0 mm 2 mps 755 mmHg 73%
    11:00 +16°C° 0 mm 2 mps 755 mmHg 69%
    12:00 +17°C° 0 mm 2 mps 755 mmHg 65%
    13:00 +17°C° 0 mm 2 mps 755 mmHg 65%
    14:00 +16°C° 0 mm 2 mps 755 mmHg 66%
    15:00 +16°C° 0 mm 2 mps 756 mmHg 66%
    16:00 +16°C° 0 mm 2 mps 756 mmHg 69%
    17:00 +15°C° 0 mm 2 mps 756 mmHg 72%
    18:00 +14°C° 0 mm 2 mps 756 mmHg 74%
    19:00 +14°C° 0 mm 2 mps 757 mmHg 75%
    20:00 +13°C° 0 mm 1 mps 757 mmHg 76%
    21:00 +12°C° 0 mm 1 mps 757 mmHg 77%
    22:00 +12°C° 0 mm 1 mps 758 mmHg 76%
    23:00 +12°C° 0 mm 1 mps 758 mmHg 74%

    Day after tomorrow, 20 October, Sunday

    Time Temperature Precipitation Wind Pressure Humidity
    00:00 +12°C° 0 mm 1 mps 758 mmHg 73%
    01:00 +12°C° 0 mm 1 mps 758 mmHg 73%
    02:00 +12°C° 0 mm 1 mps 758 mmHg 73%
    03:00 +12°C° 0 mm 1 mps 759 mmHg 72%
    04:00 +12°C° 0 mm 1 mps 759 mmHg 74%
    05:00 +12°C° 0 mm 1 mps 759 mmHg 77%
    06:00 +12°C° 0 mm 2 mps 759 mmHg 79%
    07:00 +12°C° 0 mm 2 mps 760 mmHg 78%
    08:00 +12°C° 0 mm 2 mps 760 mmHg 77%
    09:00 +12°C° 0 mm 2 mps 760 mmHg 77%
    10:00 +13°C° 0 mm 2 mps 760 mmHg 73%
    11:00 +14°C° 0 mm 2 mps 760 mmHg 69%
    12:00 +14°C° 0 mm 2 mps 760 mmHg 65%
    13:00 +15°C° 0 mm 1 mps 760 mmHg 64%
    14:00 +15°C° 0 mm 1 mps 760 mmHg 63%
    15:00 +15°C° 0 mm 1 mps 760 mmHg 61%
    16:00 +14°C° 0 mm 1 mps 760 mmHg 66%
    17:00 +13°C° 0 mm 1 mps 760 mmHg 70%
    18:00 +12°C° 0 mm 1 mps 760 mmHg 74%
    19:00 +12°C° 0 mm 1 mps 760 mmHg 75%
    20:00 +12°C° 0 mm 1 mps 761 mmHg 77%
    21:00 +11°C° 0 mm 1 mps 761 mmHg 78%
    22:00 +11°C° 0 mm 1 mps 761 mmHg 79%
    23:00 +11°C° 0 mm 1 mps 761 mmHg 80%

    21 October, Monday

    Time Temperature Precipitation Wind Pressure Humidity
    00:00 +11°C° 0 mm 1 mps 760 mmHg 81%
    01:00 +10°C° 0 mm 1 mps 760 mmHg 81%
    02:00 +10°C° 0 mm 1 mps 760 mmHg 82%
    03:00 +10°C° 0 mm 1 mps 761 mmHg 83%
    04:00 +10°C° 0 mm 1 mps 761 mmHg 83%
    05:00 +10°C° 0 mm 1 mps 761 mmHg 84%
    06:00 +9°C° 0 mm 1 mps 761 mmHg 84%
    07:00 +10°C° 0 mm 1 mps 761 mmHg 80%
    08:00 +10°C° 0 mm 2 mps 761 mmHg 75%
    09:00 +12°C° 0 mm 2 mps 761 mmHg 70%
    10:00 +14°C° 0 mm 2 mps 761 mmHg 66%
    11:00 +15°C° 0 mm 2 mps 761 mmHg 62%
    12:00 +16°C° 0 mm 2 mps 761 mmHg 58%
    13:00 +16°C° 0 mm 2 mps 760 mmHg 58%
    14:00 +16°C° 0 mm 3 mps 760 mmHg 57%
    15:00 +16°C° 0 mm 3 mps 760 mmHg 56%
    16:00 +14°C° 0 mm 3 mps 760 mmHg 61%
    17:00 +13°C° 0 mm 3 mps 760 mmHg 65%
    18:00 +12°C° 0 mm 3 mps 760 mmHg 70%
    19:00 +12°C° 0 mm 3 mps 760 mmHg 71%
    20:00 +11°C° 0 mm 3 mps 760 mmHg 72%
    21:00 +11°C° 0 mm 3 mps 760 mmHg 74%
    22:00 +11°C° 0 mm 3 mps 759 mmHg 74%
    23:00 +10°C° 0 mm 3 mps 759 mmHg 75%

    22 October, Tuesday

    Time Temperature Precipitation Wind Pressure Humidity
    00:00 +10°C° 0 mm 3 mps 759 mmHg 76%
    01:00 +10°C° 0 mm 3 mps 759 mmHg 76%
    02:00 +10°C° 0 mm 3 mps 759 mmHg 77%
    03:00 +9°C° 0 mm 3 mps 759 mmHg 77%
    04:00 +9°C° 0 mm 3 mps 759 mmHg 78%
    05:00 +9°C° 0 mm 3 mps 759 mmHg 79%
    06:00 +9°C° 0 mm 3 mps 759 mmHg 79%
    07:00 +10°C° 0 mm 3 mps 759 mmHg 74%
    08:00 +11°C° 0 mm 3 mps 759 mmHg 70%
    09:00 +12°C° 0 mm 4 mps 758 mmHg 65%
    10:00 +13°C° 0 mm 4 mps 758 mmHg 60%
    11:00 +15°C° 0 mm 4 mps 758 mmHg 55%
    12:00 +16°C° 0 mm 5 mps 758 mmHg 51%
    13:00 +16°C° 0 mm 5 mps 757 mmHg 50%
    14:00 +16°C° 0 mm 5 mps 757 mmHg 50%
    15:00 +16°C° 0 mm 5 mps 756 mmHg 50%
    16:00 +15°C° 0 mm 5 mps 756 mmHg 54%
    17:00 +14°C° 0 mm 5 mps 756 mmHg 59%
    18:00 +13°C° 0 mm 4 mps 755 mmHg 63%
    19:00 +13°C° 0 mm 5 mps 755 mmHg 63%
    20:00 +13°C° 0 mm 5 mps 755 mmHg 63%
    21:00 +12°C° 0 mm 5 mps 755 mmHg 63%
    22:00 +12°C° 0 mm 5 mps 754 mmHg 64%
    23:00 +11°C° 0 mm 6 mps 754 mmHg 64%

    23 October, Wednesday

    Time Temperature Precipitation Wind Pressure Humidity
    00:00 +11°C° 0 mm 6 mps 753 mmHg 65%
    01:00 +11°C° 0 mm 6 mps 753 mmHg 66%
    02:00 +10°C° 0 mm 6 mps 753 mmHg 67%
    03:00 +10°C° 0 mm 6 mps 753 mmHg 67%
    04:00 +10°C° 0 mm 6 mps 753 mmHg 67%
    05:00 +10°C° 0 mm 6 mps 753 mmHg 68%
    06:00 +10°C° 0 mm 6 mps 753 mmHg 68%
    07:00 +12°C° 0 mm 5 mps 753 mmHg 67%
    08:00 +12°C° 0 mm 5 mps 753 mmHg 66%
    09:00 +12°C° 0 mm 4 mps 753 mmHg 65%
    10:00 +14°C° 0 mm 4 mps 753 mmHg 62%
    11:00 +16°C° 0 mm 3 mps 753 mmHg 59%
    12:00 +17°C° 0 mm 3 mps 753 mmHg 56%
    13:00 +17°C° 0 mm 3 mps 753 mmHg 57%
    14:00 +17°C° 0 mm 2 mps 753 mmHg 58%
    15:00 +17°C° 0 mm 2 mps 753 mmHg 59%
    16:00 +17°C° 0 mm 2 mps 754 mmHg 63%
    17:00 +16°C° 0 mm 2 mps 754 mmHg 67%
    18:00 +15°C° 0 mm 1 mps 754 mmHg 70%
    19:00 +15°C° 0 mm 1 mps 754 mmHg 72%
    20:00 +15°C° 0 mm 1 mps 755 mmHg 74%
    21:00 +14°C° 0 mm 1 mps 755 mmHg 76%
    22:00 +14°C° 0 mm 1 mps 755 mmHg 79%
    23:00 +14°C° 0 mm 1 mps 755 mmHg 81%
    Show more